Location: Codford Saint Peter
(51.1597°N, 2.0531°W)
Time: 22:31:23
(UTC+00:00)

NOSS 3-4 (C) - Pass Details

Date: 18 September 2020
Orbit: 886 x 1326 km, 63.4° (Epoch: 19 October)

Event Time Altitude Azimuth Distance (km) Brightness Sun altitude
Exits shadow 22:41:39 46° 18° (NNE) 1,283 4.3 -34.7°
Drops below altitude 10° 22:46:24 10° 43° (NE) 2,813 6.1 -35.0°
Sets 22:49:11 0° 47° (NE) 3,833 6.8 -35.2°
